Weather in Rudny

Russia / Primorsky Krai     44°16′41″N   134°57′24″E
temp.,
°C
wind,
m/s
gust,
m/s
humid.,
%
clouds,
%
prec.,
mm/h
press.,
hPa
HPBL,
m
19 september, sun
sun1901:00+9wnw23986 0.0 101854
04:00+7wnw229713 0.0 101940
07:00+5wnw219398 0.0 102120
10:00+13wnw1345100 0.0 1019458
13:00+19wnw3527100 0.0 10171089
16:00+19nw3439100 0.0 10161002
19:00+13wnw1165100 0.0 101812
22:00+10wnw227086 0.0 102035
20 september, mon
mon2001:00+7nw2186100 0.0 102123
04:00+6wnw1192100 0.0 102217
07:00+5nw119184 0.0 102215
10:00+13n1155100 0.0 1021324
13:00+20ese134498 0.0 10191147
16:00+21sse3350100 0.0 1017937
19:00+14ese1178100 0.0 101821
22:00+12se0082100 0.0 101810
21 september, tue
tue2101:00+11n1294100 0.3 101740
04:00+11ne1194100 0.4 101614
07:00+11ese1198100 0.3 101516
10:00+12ese1199100 1.6 1015112
13:00+12e16100100 3.5 1013329
16:00+13ese3999100 7.2 1010697
19:00+13e31099100 6.8 1009607
22:00+13ene16100100 14.6 1008392
22 september, wed
wed2201:00+13ene11100100 2.3 100698
04:00+13s1199100 3.4 100561
07:00+13ene1199100 0.9 100538
10:00+15ese1299100 1.1 1006217
13:00+15ese2596100 0.1 1006619
16:00+14se2796100 0.2 1007587
19:00+13se2898100 0.1 1008586
22:00+13ese2899100 1.2 1010635
23 september, thu
thu2301:00+12ene1599100 1.6 1011353
04:00+12ene0399100 1.8 1011240
07:00+11ne1599100 0.0 1012344
10:00+11ene21097100 0.1 1014949
13:00+11ene21097100 1.0 1014918
16:00+11ne2997100 2.4 1015873
19:00+10nne1597100 1.3 1018312
22:00+9n1697100 2.9 1020400